Rockford, IL

5:23 AM CDT on July 23, 2017 (GMT -0500)
Greater Rockford

Weather History for KRFD - November, 2011

Change the Weather History Date:

Tuesday, November 15, 2011

  Actual Average Record
Temperature  
Mean Temperature 45 °F 39 °F  
Max Temperature 61 °F 48 °F 69 °F (1953)
Min Temperature 29 °F 31 °F 0 °F (1959)
Degree Days  
Heating Degree Days 20 26  
Month to date heating degree days 299 334  
Since 1 July heating degree days 821 887  
Cooling Degree Days 0 0  
Month to date cooling degree days 0 0  
Year to date cooling degree days 1019 820  
Moisture  
Dew Point 31 °F    
Average Humidity 64    
Maximum Humidity 92    
Minimum Humidity 35    
Precipitation  
Precipitation 0.00 in 0.10 in 1.14 in (1960)
Month to date precipitation 3.37 1.33  
Year to date precipitation 36.32 33.01  
Snow  
Snow 0.00 in 0.00 in 2.00 in (1947)
Month to date snowfall T 0.2  
Since 1 July snowfall T 0.3  
Since 1 September snowfall T 0.3  
Snow Depth -    
Sea Level Pressure  
Sea Level Pressure 29.78 in    
Wind  
Wind Speed 7 mph (SW)    
Max Wind Speed 23 mph    
Max Gust Speed 29 mph    
Visibility 10 miles    
Events      
T = Trace of Precipitation, MM = Missing Value Source: NWS Daily Summary

Daily Weather History Graph

Daily Weather History Graph

Search for Another Location

Airport or City:

Trip Planner

Search our weather history database for the weather conditions in past years. The results will help you decide how hot, cold, wet, or windy it might be!

Date:

Astronomy

Nov. 15, 2011 Rise Set
Actual Time 6:46 AM CST 4:34 PM CST
Civil Twilight 6:16 AM CST 5:05 PM CST
Nautical Twilight 5:42 AM CST 5:38 PM CST
Astronomical Twilight 5:09 AM CST 6:12 PM CST
Moon 8:43 PM CST (11/15) 10:46 AM CST (11/15)
Length of Visible Light 10h 48m
Length of Day
9h 48m
Waning Gibbous, 79% of the Moon is Illuminated
Nov 15
Waning Gibbous
Nov 18
Last Quarter
Nov 25
New
Dec 2
First Quarter
Dec 10
Full

Hourly Weather History & Observations

Time (CST) Temp. Windchill Dew Point Humidity Pressure Visibility Wind Dir Wind Speed Gust Speed Precip Events Conditions
12:54 AM 35.1 °F - 30.9 °F 85% 29.77 in 10.0 mi Calm Calm - N/A   Clear
1:54 AM 34.0 °F 31.0 °F 30.9 °F 89% 29.77 in 9.0 mi SSE 3.5 mph - N/A   Clear
2:54 AM 33.1 °F - 28.9 °F 85% 29.76 in 8.0 mi Calm Calm - N/A   Clear
3:54 AM 30.0 °F - 27.0 °F 88% 29.76 in 10.0 mi Calm Calm - N/A   Clear
4:54 AM 30.9 °F - 28.0 °F 89% 29.77 in 4.0 mi Calm Calm - N/A   Partly Cloudy
5:54 AM 32.0 °F 28.7 °F 28.0 °F 85% 29.77 in 10.0 mi SSE 3.5 mph - N/A   Partly Cloudy
6:54 AM 32.0 °F 26.4 °F 28.4 °F 87% 29.75 in 10.0 mi SSW 5.8 mph - N/A   Partly Cloudy
7:54 AM 36.0 °F - 30.0 °F 79% 29.79 in 10.0 mi Calm Calm - N/A   Scattered Clouds
8:54 AM 46.4 °F 41.5 °F 35.6 °F 66% 29.75 in 10.0 mi South 10.4 mph - N/A   Scattered Clouds
9:54 AM 51.1 °F - 36.0 °F 56% 29.74 in 10.0 mi South 13.8 mph - N/A   Scattered Clouds
10:54 AM 55.9 °F - 35.1 °F 45% 29.75 in 10.0 mi SSW 15.0 mph - N/A   Mostly Cloudy
11:54 AM 57.0 °F - 35.1 °F 44% 29.72 in 10.0 mi SW 17.3 mph - N/A   Mostly Cloudy
12:54 PM 59.4 °F - 36.0 °F 42% 29.71 in 10.0 mi SW 16.1 mph - N/A   Scattered Clouds
1:54 PM 61.0 °F - 32.0 °F 34% 29.69 in 10.0 mi WSW 17.3 mph 26.5 mph N/A   Partly Cloudy
2:54 PM 60.1 °F - 33.1 °F 36% 29.72 in 10.0 mi West 12.7 mph 19.6 mph N/A   Clear
3:54 PM 57.0 °F - 34.0 °F 42% 29.73 in 10.0 mi WSW 4.6 mph - N/A   Clear
4:54 PM 51.8 °F - 33.8 °F 50% 29.74 in 10.0 mi Calm Calm - N/A   Clear
5:54 PM 46.0 °F 44.8 °F 34.0 °F 63% 29.78 in 8.0 mi South 3.5 mph - N/A   Clear
6:54 PM 46.0 °F 43.1 °F 34.0 °F 63% 29.82 in 10.0 mi West 5.8 mph - N/A   Clear
7:54 PM 44.1 °F - 32.0 °F 63% 29.83 in 10.0 mi Calm Calm - N/A   Clear
8:54 PM 43.0 °F 40.3 °F 30.9 °F 62% 29.84 in 10.0 mi WNW 4.6 mph - N/A   Clear
9:54 PM 44.1 °F 38.1 °F 28.0 °F 53% 29.86 in 10.0 mi WNW 11.5 mph - N/A   Clear
10:54 PM 42.1 °F 35.2 °F 27.0 °F 55% 29.90 in 10.0 mi WNW 12.7 mph - N/A   Clear
11:54 PM 39.9 °F 32.5 °F 25.0 °F 55% 29.93 in 10.0 mi NW 12.7 mph - N/A   Clear